Location: Golden Pond Observatory
(36.7667°N, 88.0167°W)
Time: 00:42:40
(UTC-06:00)

Amateur Radio Satellites - All Passes

Search period start: 21 January 2018 00:12
Search period end: 22 January 2018 00:12
Location: Golden Pond Observatory, 36.7667°N, 88.0167°W

Satellite Date Start Highest point End Downlink Frequencies (MHz)
Time Altitude Azimuth
POLYITAN 1 21 Jan 00:18:39 00:22:49 49° 286° (WNW) 00:26:56 437.675
SPROUT 21 Jan 00:34:01 00:37:04 19° 266° (W) 00:40:09 437.525
NANOSAT C BR1 21 Jan 00:34:29 00:38:25 37° 288° (WNW) 00:42:20 145.865
VELOX 1 21 Jan 00:35:47 00:39:47 34° 262° (W) 00:43:48 145.980
UKube-1 21 Jan 00:40:28 00:44:02 26° 69° (ENE) 00:47:37 .
BUGSAT 1 21 Jan 00:43:59 00:48:06 47° 100° (E) 00:52:12 437.445
QB50P2 21 Jan 00:49:10 00:52:20 21° 292° (WNW) 00:55:30 145.880/145.840
DX 1 21 Jan 00:51:31 00:55:46 61° 75° (ENE) 01:00:04 434.975-435.025
MOZHAYETS 4 21 Jan 00:55:24 00:56:34 11° 63° (ENE) 00:57:43
O/OREOS (USA 219) 21 Jan 00:57:29 01:01:24 28° 297° (WNW) 01:05:18 437.305
50 SAT 21 Jan 01:03:58 01:07:01 83° 77° (ENE) 01:10:07 437.505
DUCHIFAT 1 21 Jan 01:19:33 01:21:52 14° 294° (WNW) 01:24:11 145.980
Gurwin Techsat 1B 21 Jan 01:21:52 01:27:02 51° 100° (E) 01:32:11 435.225
EO-79 21 Jan 01:22:05 01:23:00 11° 296° (WNW) 01:23:55 145.935-145.965
Oscar 19 21 Jan 01:35:52 01:41:04 86° 285° (WNW) 01:46:12 437.125/150
AO-91 21 Jan 01:45:44 01:50:08 51° 285° (WNW) 01:54:57 145.960
ITUPSAT 1 21 Jan 01:58:38 02:02:47 31° 69° (ENE) 02:06:58 437.325
FALCONSAT 3 21 Jan 02:09:03 02:09:51 11° 149° (SSE) 02:10:39 435.103
UKube-1 21 Jan 02:16:33 02:19:58 23° 264° (W) 02:23:24 .
nSIGHT-1 21 Jan 02:18:52 02:21:42 28° 33° (NNE) 02:24:31 .
BUGSAT 1 21 Jan 02:20:56 02:23:00 13° 294° (WNW) 02:25:04 437.445
AO-7 21 Jan 02:26:12 02:33:21 31° 97° (E) 02:40:25 .
MOZHAYETS 4 21 Jan 02:28:28 02:33:03 71° 258° (WSW) 02:37:43
ISS 21 Jan 02:32:18 02:35:10 27° 33° (NNE) 02:38:02 437.550
CUBESAT XI-V 21 Jan 02:32:20 02:36:23 29° 70° (ENE) 02:40:26 437.345
BEESAT 21 Jan 02:37:34 02:42:19 82° 74° (ENE) 02:47:06 436.000
ITAMSAT 1 21 Jan 02:43:16 02:46:55 19° 94° (E) 02:50:33 435.822/435.867
Gurwin Techsat 1B 21 Jan 03:02:57 03:06:32 19° 296° (WNW) 03:10:07 435.225
ITUPSAT 1 21 Jan 03:36:42 03:40:34 24° 264° (W) 03:44:27 437.325
SO-50 21 Jan 03:43:51 03:45:48 13° 108° (ESE) 03:47:45 436.795
FALCONSAT 3 21 Jan 03:44:56 03:48:21 37° 162° (SSE) 03:51:46 435.103
nSIGHT-1 21 Jan 03:55:09 03:57:46 23° 229° (SW) 04:00:23 .
KKS-1 21 Jan 03:57:07 04:01:05 34° 71° (ENE) 04:05:04 437.445
ISS 21 Jan 04:08:46 04:11:36 27° 228° (SW) 04:14:25 437.550
CUBESAT XI-V 21 Jan 04:09:52 04:13:41 24° 265° (W) 04:17:30 437.345
STARS 21 Jan 04:13:34 04:16:40 19° 67° (ENE) 04:19:47 437.465
AO-7 21 Jan 04:18:16 04:26:21 55° 294° (WNW) 04:34:22 .
M-CUBED/EXP-1 PRIME 21 Jan 04:20:58 04:23:44 25° 102° (ESE) 04:26:28 437.505
DOVE 4 21 Jan 04:21:15 04:25:31 49° 100° (E) 04:30:01 437.250
ITAMSAT 1 21 Jan 04:21:36 04:26:33 45° 289° (WNW) 04:31:29 435.822/435.867
LilacSat-2 21 Jan 05:00:11 05:02:35 16° 94° (E) 05:04:57 437.200
XW-2C 21 Jan 05:02:15 05:04:32 15° 94° (E) 05:06:48 145.795 - 145.815
SO-50 21 Jan 05:21:20 05:25:42 56° 303° (WNW) 05:30:09 436.795
FALCONSAT 3 21 Jan 05:23:35 05:27:15 71° 175° (S) 05:30:54 435.103
STRAND 1 21 Jan 05:34:29 05:38:18 22° 66° (ENE) 05:42:08 437.568
KKS-1 21 Jan 05:34:34 05:37:41 19° 265° (W) 05:40:49 437.445
KAITUO 1B 21 Jan 05:35:29 05:38:41 27° 97° (E) 05:41:51 145.475/437.950
XW-2F 21 Jan 05:37:20 05:40:52 40° 99° (E) 05:44:23 145.980 - 146.000
CUTE 1.7 + AOD 2 21 Jan 05:40:09 05:41:55 12° 92° (E) 05:43:40 437.475
NUDT-PHONESAT 21 Jan 05:45:54 05:49:18 35° 98° (E) 05:52:39 437.300
XW-2D 21 Jan 05:47:05 05:50:49 65° 101° (E) 05:54:31 145.860 - 145.880
STARS 21 Jan 05:48:50 05:52:45 33° 262° (W) 05:56:42 437.465
CUBEBUG 2 21 Jan 05:54:12 05:56:33 14° 91° (E) 05:58:54 437.445
CUTE-I 21 Jan 05:55:55 06:01:08 54° 101° (E) 06:06:20 437.470
M-CUBED/EXP-1 PRIME 21 Jan 05:56:09 05:57:55 14° 297° (WNW) 05:59:40 437.505
DOVE 4 21 Jan 06:00:35 06:02:49 14° 293° (WNW) 06:05:08 437.250
HO-68 21 Jan 06:01:34 06:07:50 32° 97° (E) 06:14:02 435.675
XW-2B 21 Jan 06:04:42 06:08:27 75° 282° (WNW) 06:12:10 145.730 - 145.750
AO-7 21 Jan 06:15:45 06:17:13 11° 314° (NW) 06:18:41 .
LilacSat-2 21 Jan 06:33:37 06:36:51 28° 288° (WNW) 06:40:04 437.200
XW-2C 21 Jan 06:35:28 06:38:43 28° 288° (WNW) 06:41:57 145.795 - 145.815
FO-29 21 Jan 06:39:47 06:46:19 46° 72° (ENE) 06:52:09 435.910
AAUSAT CUBESAT 2 21 Jan 06:42:44 06:45:15 16° 93° (E) 06:47:43 437.432
RS-15 21 Jan 06:44:52 06:56:00 42° 107° (ESE) 07:07:02 29.354- 29.394
SEEDS 21 Jan 07:00:39 07:04:48 69° 101° (E) 07:08:55 437.485
FALCONSAT 3 21 Jan 07:02:37 07:06:12 55° 192° (SSW) 07:09:48 435.103
KAITUO 1B 21 Jan 07:10:07 07:12:23 16° 291° (WNW) 07:14:37 145.475/437.950
STRAND 1 21 Jan 07:12:26 07:17:11 39° 262° (W) 07:21:58 437.568
XW-2F 21 Jan 07:13:17 07:14:33 11° 293° (WNW) 07:15:48 145.980 - 146.000
CUTE 1.7 + AOD 2 21 Jan 07:13:56 07:17:57 45° 286° (WNW) 07:21:57 437.475
NUDT-PHONESAT 21 Jan 07:21:11 07:22:45 12° 293° (WNW) 07:24:18 437.300
CUBEBUG 2 21 Jan 07:28:47 07:33:26 54° 286° (WNW) 07:38:02 437.445
UWE-3 21 Jan 07:33:26 07:38:08 87° 283° (WNW) 07:42:44 435.000/436.395/437.385
XW-2A 21 Jan 07:35:05 07:38:23 58° 100° (E) 07:41:39 145.665 - 145.685
CUTE-I 21 Jan 07:37:14 07:40:42 18° 296° (WNW) 07:44:09 437.470
UNISAT 6 21 Jan 07:41:14 07:43:33 14° 65° (ENE) 07:45:55 437.425
HO-68 21 Jan 07:48:55 07:55:36 45° 293° (WNW) 08:02:18 435.675
ZACube-1 21 Jan 07:56:27 08:01:02 86° 100° (E) 08:05:29 437.345
BEESAT 3 21 Jan 07:57:43 07:59:19 12° 108° (ESE) 08:00:54 437.485
AO-73 21 Jan 08:03:02 08:07:35 88° 95° (E) 08:12:01 145.935
YUBILEINY 21 Jan 08:03:06 08:06:22 12° 61° (ENE) 08:09:36 435.215
AAUSAT CUBESAT 2 21 Jan 08:17:03 08:20:45 34° 288° (WNW) 08:24:27 437.432
FO-29 21 Jan 08:25:39 08:31:24 27° 263° (W) 08:36:39 435.910
PCSat 21 Jan 08:29:51 08:34:20 27° 108° (ESE) 08:38:50 145.827
Oscar 11 21 Jan 08:36:00 08:40:16 63° 284° (WNW) 08:44:31 .
FALCONSAT 3 21 Jan 08:42:11 08:44:54 20° 206° (SSW) 08:47:37 435.103
BEESAT 2 21 Jan 08:47:32 08:48:12 10° 107° (ESE) 08:48:51 435.950
DELFI C3 21 Jan 08:50:13 08:53:40 29° 97° (E) 08:57:05 145.870
RS-15 21 Jan 08:56:02 09:08:06 58° 307° (NW) 09:20:04 29.354- 29.394
TIGRISAT 21 Jan 08:59:55 09:04:18 84° 257° (WSW) 09:08:51 435.000
UNISAT 6 21 Jan 09:15:31 09:19:46 49° 261° (W) 09:24:10 437.425
PRISM 21 Jan 09:20:16 09:23:58 35° 72° (ENE) 09:27:41 437.425
Max Valier Satellite 21 Jan 09:24:21 09:27:58 50° 100° (E) 09:31:32 145.860
O/OREOS (USA 219) 21 Jan 09:30:09 09:34:08 30° 63° (ENE) 09:38:05 437.305
BEESAT 3 21 Jan 09:32:31 09:36:22 48° 303° (WNW) 09:40:14 437.485
AIST 2D 21 Jan 09:41:48 09:44:38 23° 72° (ENE) 09:47:30 435.315
EO-88 21 Jan 09:42:08 09:45:42 54° 101° (E) 09:49:14 145.990 - 145.960
YUBILEINY 21 Jan 09:56:02 10:04:47 73° 82° (E) 10:13:25 435.215
QB50P2 21 Jan 10:03:57 10:06:42 17° 67° (ENE) 10:09:28 145.880/145.840
PCSat 21 Jan 10:12:33 10:17:32 37° 304° (WNW) 10:22:33 145.827
BEESAT 2 21 Jan 10:21:26 10:25:21 56° 302° (WNW) 10:29:21 435.950
DELFI C3 21 Jan 10:25:31 10:28:08 17° 291° (WNW) 10:30:46 145.870
AO-85 21 Jan 10:28:39 10:31:13 17° 109° (ESE) 10:33:51 145.980
DUCHIFAT 1 21 Jan 10:32:11 10:35:31 23° 69° (ENE) 10:38:53 145.980
EO-79 21 Jan 10:33:31 10:37:17 32° 71° (ENE) 10:41:05 145.935-145.965
JUGNU 21 Jan 10:50:17 10:53:13 14° 176° (S) 10:56:09 437.505
ESTCUBE 1 21 Jan 10:53:58 10:58:08 37° 98° (E) 11:02:16 437.505/2401.250
PRISM 21 Jan 10:56:58 10:59:19 15° 266° (W) 11:01:41 437.425
LO-87 21 Jan 10:59:52 11:03:28 61° 101° (E) 11:07:02 145.935 - 145.965
POLYITAN 1 21 Jan 11:08:06 11:12:20 86° 73° (ENE) 11:16:36 437.675
O/OREOS (USA 219) 21 Jan 11:09:56 11:13:19 21° 258° (WSW) 11:16:41 437.305
Oscar 19 21 Jan 11:14:33 11:16:42 13° 62° (ENE) 11:18:52 437.125/150
AIST 2D 21 Jan 11:15:28 11:17:44 16° 266° (W) 11:20:02 435.315
RS-15 21 Jan 11:15:36 11:24:03 21° 336° (NNW) 11:32:24 29.354- 29.394
NANOSAT C BR1 21 Jan 11:23:18 11:27:29 71° 258° (WSW) 11:31:43 145.865
BUGSAT 1 21 Jan 11:31:38 11:34:53 23° 69° (ENE) 11:38:11 437.445
QB50P2 21 Jan 11:38:18 11:42:10 35° 262° (W) 11:46:06 145.880/145.840
YUBILEINY 21 Jan 11:54:42 12:00:34 21° 280° (W) 12:06:25 435.215
DUCHIFAT 1 21 Jan 12:07:35 12:11:02 25° 264° (W) 12:14:31 145.980
AO-85 21 Jan 12:07:38 12:11:15 34° 307° (NW) 12:15:05 145.980
EO-79 21 Jan 12:10:12 12:13:04 18° 266° (W) 12:15:58 145.935-145.965
SPROUT 21 Jan 12:20:12 12:24:31 83° 104° (ESE) 12:28:49 437.525
VELOX 1 21 Jan 12:27:25 12:31:41 49° 100° (E) 12:35:57 145.980
ESTCUBE 1 21 Jan 12:31:35 12:34:37 18° 293° (WNW) 12:37:39 437.505/2401.250
JUGNU 21 Jan 12:38:48 12:41:23 13° 187° (S) 12:44:00 437.505
Gurwin Techsat 1B 21 Jan 12:40:29 12:45:43 65° 74° (ENE) 12:51:00 435.225
AO-91 21 Jan 12:41:29 12:44:51 79° 260° (W) 12:48:17 145.960
DX 1 21 Jan 12:43:49 12:45:39 12° 93° (E) 12:47:28 434.975-435.025
Oscar 19 21 Jan 12:50:08 12:55:20 76° 258° (WSW) 13:00:33 437.125/150
SRMSAT 21 Jan 13:00:16 13:02:50 13° 172° (S) 13:05:25 437.500
BUGSAT 1 21 Jan 13:06:51 13:10:07 23° 264° (W) 13:13:26 437.445
AO-7 21 Jan 13:22:39 13:30:00 36° 61° (ENE) 13:37:21 .
RS-15 21 Jan 13:36:18 13:43:22 17° 14° (NNE) 13:50:15 29.354- 29.394
50 SAT 21 Jan 13:51:53 13:55:00 89° 85° (E) 13:58:06 437.505
SO-50 21 Jan 13:54:22 13:59:04 65° 58° (ENE) 14:03:49 436.795
ITAMSAT 1 21 Jan 13:58:56 14:03:00 24° 67° (ENE) 14:07:04 435.822/435.867
UKube-1 21 Jan 14:04:33 14:08:50 66° 102° (ESE) 14:13:06 .
VELOX 1 21 Jan 14:05:26 14:07:40 14° 295° (WNW) 14:09:54 145.980
DX 1 21 Jan 14:17:52 14:22:03 49° 287° (WNW) 14:26:14 434.975-435.025
Gurwin Techsat 1B 21 Jan 14:23:33 14:26:04 13° 269° (W) 14:28:36 435.225
MOZHAYETS 4 21 Jan 14:26:03 14:30:10 31° 97° (E) 14:34:14
BEESAT 21 Jan 14:40:30 14:44:26 24° 96° (E) 14:48:18 436.000
SRMSAT 21 Jan 14:47:57 14:51:11 15° 182° (S) 14:54:26 437.500
M-CUBED/EXP-1 PRIME 21 Jan 15:03:23 15:07:07 28° 67° (ENE) 15:10:39 437.505
NO-84 21 Jan 15:13:23 15:15:26 16° 126° (SE) 15:17:24 435.350 FM
AO-7 21 Jan 15:14:28 15:22:27 49° 258° (WSW) 15:30:30 .
DOVE 4 21 Jan 15:24:47 15:28:42 35° 73° (ENE) 15:32:32 437.250
SO-50 21 Jan 15:36:58 15:38:59 13° 253° (WSW) 15:41:00 436.795
ITAMSAT 1 21 Jan 15:37:28 15:42:13 37° 262° (W) 15:46:59 435.822/435.867
ITUPSAT 1 21 Jan 15:38:15 15:43:05 81° 285° (WNW) 15:47:53 437.325
UKube-1 21 Jan 15:43:45 15:44:15 10° 297° (WNW) 15:44:44 .
RS-15 21 Jan 15:49:25 16:00:24 42° 46° (NE) 16:10:47 29.354- 29.394
MOZHAYETS 4 21 Jan 16:03:32 16:07:07 23° 292° (WNW) 16:10:40
CUBESAT XI-V 21 Jan 16:07:34 16:12:11 83° 283° (WNW) 16:16:46 437.345
KAITUO 1B 21 Jan 16:15:40 16:15:59 10° 66° (ENE) 16:16:18 145.475/437.950
XW-2F 21 Jan 16:16:43 16:18:54 15° 68° (ENE) 16:21:05 145.980 - 146.000
BEESAT 21 Jan 16:17:57 16:22:08 31° 291° (WNW) 16:26:18 436.000
NUDT-PHONESAT 21 Jan 16:23:56 16:25:31 12° 67° (ENE) 16:27:05 437.300
XW-2D 21 Jan 16:26:11 16:29:10 22° 71° (ENE) 16:32:08 145.860 - 145.880
HO-68 21 Jan 16:29:23 16:34:08 19° 59° (ENE) 16:38:53 435.675
M-CUBED/EXP-1 PRIME 21 Jan 16:37:56 16:41:23 23° 258° (WSW) 16:44:42 437.505
SRMSAT 21 Jan 16:38:08 16:39:32 11° 192° (SSW) 16:40:56 437.500
XW-2B 21 Jan 16:43:15 16:46:43 33° 73° (ENE) 16:50:11 145.730 - 145.750
NO-84 21 Jan 16:49:35 16:52:25 31° 318° (NW) 16:55:07 435.350 FM
DOVE 4 21 Jan 17:03:52 17:06:29 16° 266° (W) 17:09:03 437.250
LilacSat-2 21 Jan 17:11:59 17:15:51 86° 258° (WSW) 17:19:43 437.200
XW-2C 21 Jan 17:13:13 17:17:03 89° 85° (E) 17:20:53 145.795 - 145.815
CUTE-I 21 Jan 17:15:17 17:20:34 71° 74° (ENE) 17:25:51 437.470
PCSat 21 Jan 17:20:20 17:23:35 16° 47° (NE) 17:26:48 145.827
KKS-1 21 Jan 17:26:00 17:30:28 85° 284° (WNW) 17:34:56 437.445
STARS 21 Jan 17:39:43 17:44:02 49° 100° (E) 17:48:19 437.465
KAITUO 1B 21 Jan 17:45:50 17:49:29 48° 261° (W) 17:53:07 145.475/437.950
XW-2F 21 Jan 17:49:15 17:52:42 32° 263° (W) 17:56:08 145.980 - 146.000
SEEDS 21 Jan 17:49:44 17:53:32 33° 72° (ENE) 17:57:20 437.485
BEESAT 3 21 Jan 17:51:05 17:54:47 40° 56° (NE) 17:58:25 437.485
NUDT-PHONESAT 21 Jan 17:55:28 17:58:57 38° 262° (W) 18:02:27 437.300
XW-2D 21 Jan 18:00:14 18:03:11 21° 265° (W) 18:06:10 145.860 - 145.880
RS-15 21 Jan 18:02:00 18:13:10 57° 249° (WSW) 18:23:48 29.354- 29.394
CUTE 1.7 + AOD 2 21 Jan 18:03:23 18:07:39 88° 72° (ENE) 18:11:56 437.475
XW-2A 21 Jan 18:04:56 18:06:38 13° 69° (ENE) 18:08:19 145.665 - 145.685
HO-68 21 Jan 18:13:54 18:21:03 77° 255° (WSW) 18:28:15 435.675
XW-2B 21 Jan 18:18:57 18:20:57 14° 267° (W) 18:22:58 145.730 - 145.750
CUBEBUG 2 21 Jan 18:23:53 18:28:14 88° 259° (W) 18:32:46 437.445
UWE-3 21 Jan 18:27:30 18:31:48 54° 74° (ENE) 18:36:14 435.000/436.395/437.385
BEESAT 2 21 Jan 18:41:04 18:44:48 36° 55° (NE) 18:48:27 435.950
ZACube-1 21 Jan 18:49:18 18:53:33 48° 74° (ENE) 18:57:55 437.345
nSIGHT-1 21 Jan 18:53:56 18:56:38 26° 132° (SE) 18:59:20 .
AO-73 21 Jan 18:55:30 18:59:46 49° 74° (ENE) 19:04:08 145.935
CUTE-I 21 Jan 18:59:00 19:01:03 12° 269° (W) 19:03:07 437.470
AO-85 21 Jan 19:00:53 19:03:30 14° 45° (NE) 19:06:10 145.980
PCSat 21 Jan 19:02:08 19:07:34 77° 245° (WSW) 19:12:58 145.827
AAUSAT CUBESAT 2 21 Jan 19:03:45 19:07:53 77° 258° (WSW) 19:12:01 437.432
ISS 21 Jan 19:10:37 19:13:23 26° 132° (SE) 19:16:10 437.550
STARS 21 Jan 19:17:39 19:19:54 14° 295° (WNW) 19:22:10 437.465
STRAND 1 21 Jan 19:24:43 19:29:54 84° 103° (ESE) 19:35:03 437.568
SEEDS 21 Jan 19:26:29 19:29:16 17° 267° (W) 19:32:03 437.485
Oscar 11 21 Jan 19:27:47 19:32:06 71° 77° (ENE) 19:36:28 .
BEESAT 3 21 Jan 19:29:58 19:31:54 13° 251° (WSW) 19:33:48 437.485
DELFI C3 21 Jan 19:34:35 19:36:15 12° 67° (ENE) 19:37:56 145.870
XW-2A 21 Jan 19:36:02 19:39:01 28° 263° (W) 19:42:01 145.665 - 145.685
FO-29 21 Jan 19:36:22 19:41:16 42° 99° (E) 19:46:17 435.910
Max Valier Satellite 21 Jan 20:01:32 20:03:54 16° 69° (ENE) 20:06:17 145.860
UWE-3 21 Jan 20:06:55 20:08:34 12° 270° (W) 20:10:16 435.000/436.395/437.385
HO-68 21 Jan 20:08:55 20:09:45 10° 271° (W) 20:10:35 435.675
EO-88 21 Jan 20:18:05 20:20:26 16° 69° (ENE) 20:22:47 145.990 - 145.960
BEESAT 2 21 Jan 20:19:43 20:22:10 16° 251° (WSW) 20:24:35 435.950
ZACube-1 21 Jan 20:27:49 20:30:04 14° 269° (W) 20:32:20 437.345
nSIGHT-1 21 Jan 20:30:01 20:32:44 26° 327° (NNW) 20:35:29 .
AO-73 21 Jan 20:34:05 20:36:14 13° 269° (W) 20:38:26 145.935
AO-85 21 Jan 20:39:26 20:44:30 88° 240° (WSW) 20:49:49 145.980
ISS 21 Jan 20:46:57 20:49:49 27° 328° (NNW) 20:52:40 437.550
TIGRISAT 21 Jan 20:54:03 20:57:57 25° 95° (E) 21:01:49 435.000
YUBILEINY 21 Jan 21:02:02 21:06:40 16° 78° (ENE) 21:11:17 435.215
DELFI C3 21 Jan 21:06:53 21:10:35 41° 261° (W) 21:14:18 145.870
STRAND 1 21 Jan 21:07:00 21:08:19 11° 299° (WNW) 21:09:38 437.568
UNISAT 6 21 Jan 21:09:11 21:13:39 41° 98° (E) 21:18:03 437.425
FO-29 21 Jan 21:22:26 21:26:06 20° 294° (WNW) 21:29:48 435.910
LO-87 21 Jan 21:34:13 21:36:30 17° 69° (ENE) 21:38:49 145.935 - 145.965
Max Valier Satellite 21 Jan 21:34:14 21:37:28 28° 263° (W) 21:40:43 145.860
EO-88 21 Jan 21:50:43 21:53:49 26° 263° (W) 21:56:56 145.990 - 145.960
ESTCUBE 1 21 Jan 21:51:15 21:55:01 26° 70° (ENE) 21:58:47 437.505/2401.250
TIGRISAT 21 Jan 22:30:31 22:34:33 29° 290° (WNW) 22:38:32 435.000
PRISM 21 Jan 22:38:11 22:42:16 84° 101° (ESE) 22:46:21 437.425
AIST 2D 21 Jan 22:41:02 22:44:17 38° 99° (E) 22:47:31 435.315
UNISAT 6 21 Jan 22:46:46 22:49:59 18° 293° (WNW) 22:53:11 437.425
YUBILEINY 21 Jan 22:53:17 23:02:08 90° 87° (E) 23:10:59 435.215
POLYITAN 1 21 Jan 22:56:14 22:59:00 17° 94° (E) 23:01:44 437.675
LO-87 21 Jan 23:06:45 23:09:41 24° 264° (W) 23:12:39 145.935 - 145.965
NANOSAT C BR1 21 Jan 23:10:24 23:13:40 21° 95° (E) 23:16:54 145.865
SPROUT 21 Jan 23:10:47 23:14:48 43° 73° (ENE) 23:18:51 437.525
VELOX 1 21 Jan 23:22:17 23:26:10 32° 71° (ENE) 23:30:04 145.980
NO-84 21 Jan 23:23:23 23:26:02 34° 42° (NE) 23:28:47 435.350 FM
QB50P2 21 Jan 23:24:58 23:29:02 41° 99° (E) 23:33:03 145.880/145.840
ESTCUBE 1 21 Jan 23:27:58 23:31:42 25° 264° (W) 23:35:28 437.505/2401.250
O/OREOS (USA 219) 21 Jan 23:39:36 23:44:01 56° 107° (ESE) 23:48:26 437.305
DUCHIFAT 1 21 Jan 23:52:43 23:56:55 58° 100° (E) 00:01:05 145.980
EO-79 21 Jan 23:55:18 23:59:36 86° 104° (ESE) 00:03:52 145.935-145.965
